Location: Unspecified
(0.0000°N, 0.0000°E)
Time: 09:38:03
(UTC+00:00)

MANDRAKE 2 BAKER - Pass Details

Date: 20 February 2026
Orbit: 402 x 407 km, 97.7° (Epoch: 7 March)

Event Time Altitude Azimuth Distance (km) Brightness Sun altitude
Rises 05:28:20 0° 166° (SSE) 2,329 ? -11.1°
Reaches altitude 10° 05:30:19 10° 163° (SSE) 1,465 ? -10.7°
Maximum altitude 05:33:26 72° 79° (E) 429 ? -9.9°
Drops below altitude 10° 05:36:31 10° 354° (N) 1,451 ? -9.1°
Sets 05:38:29 0° 352° (N) 2,305 ? -8.7°
